TimeEST,TemperatureF,Dew PointF,Humidity,Sea Level PressureIn,VisibilityMPH,Wind Direction,Wind SpeedMPH,Gust SpeedMPH,PrecipitationIn,Events,Conditions,WindDirDegrees,DateUTC
12:15 AM,0.1,-6.2,75,29.89,10.0,WSW,15.0,20.7,N/A,,Clear,240,2013-12-10 05:15:00
12:36 AM,-0.4,-6.9,74,29.89,10.0,WSW,18.4,24.2,N/A,,Clear,240,2013-12-10 05:36:00
12:55 AM,-0.8,-6.7,76,29.89,10.0,WSW,16.1,-,N/A,,Clear,240,2013-12-10 05:55:00
1:15 AM,-1.3,-7.4,75,29.89,10.0,WSW,19.6,27.6,N/A,,Clear,240,2013-12-10 06:15:00
1:36 AM,-1.8,-7.6,76,29.89,10.0,WSW,17.3,25.3,N/A,,Clear,240,2013-12-10 06:36:00
1:55 AM,-2.0,-7.6,77,29.88,10.0,SW,17.3,24.2,N/A,,Clear,230,2013-12-10 06:55:00
2:15 AM,-2.2,-7.6,78,29.89,10.0,SW,16.1,20.7,N/A,,Clear,230,2013-12-10 07:15:00
2:35 AM,-2.4,-7.8,78,29.91,10.0,SW,13.8,21.9,N/A,,Clear,230,2013-12-10 07:35:00
2:55 AM,-2.7,-8.0,78,29.90,10.0,SW,18.4,23.0,N/A,,Clear,230,2013-12-10 07:55:00
3:15 AM,-3.3,-8.3,79,29.91,10.0,WSW,16.1,20.7,N/A,,Clear,240,2013-12-10 08:15:00
3:35 AM,-3.8,-8.5,80,29.91,10.0,WSW,12.7,-,N/A,,Clear,240,2013-12-10 08:35:00
3:55 AM,-4.2,-8.7,81,29.91,10.0,WSW,16.1,20.7,N/A,,Clear,240,2013-12-10 08:55:00
4:16 AM,-4.4,-8.7,82,29.91,10.0,SW,13.8,-,N/A,,Clear,230,2013-12-10 09:16:00
4:35 AM,-4.9,-9.4,81,29.90,10.0,SW,10.4,-,N/A,,Clear,230,2013-12-10 09:35:00
4:55 AM,-5.3,-9.4,82,29.90,10.0,WSW,9.2,-,N/A,,Scattered Clouds,240,2013-12-10 09:55:00
5:16 AM,-5.8,-9.6,84,29.88,10.0,SW,8.1,-,N/A,,Clear,230,2013-12-10 10:16:00
5:36 AM,-5.4,-9.4,83,29.87,10.0,SW,9.2,-,N/A,,Scattered Clouds,230,2013-12-10 10:36:00
5:55 AM,-6.0,-9.6,84,29.87,10.0,SW,8.1,-,N/A,,Scattered Clouds,220,2013-12-10 10:55:00
6:15 AM,-5.8,-9.4,84,29.86,10.0,SW,9.2,-,N/A,,Clear,220,2013-12-10 11:15:00
6:35 AM,-5.8,-9.4,84,29.87,10.0,SSW,12.7,-,N/A,,Scattered Clouds,210,2013-12-10 11:35:00
6:55 AM,-6.2,-9.6,85,29.85,10.0,SW,10.4,-,N/A,,Scattered Clouds,220,2013-12-10 11:55:00
7:15 AM,-6.3,-9.8,85,29.85,10.0,SSW,9.2,-,N/A,,Clear,210,2013-12-10 12:15:00
7:35 AM,-7.2,-10.5,86,29.84,10.0,SW,6.9,-,N/A,,Clear,220,2013-12-10 12:35:00
7:55 AM,-8.0,-10.8,87,29.84,10.0,SW,5.8,-,N/A,,Clear,220,2013-12-10 12:55:00
8:16 AM,-8.5,-11.6,86,29.83,10.0,SW,3.5,-,N/A,,Scattered Clouds,220,2013-12-10 13:16:00
8:35 AM,-7.8,-10.5,88,29.83,10.0,SSW,6.9,-,N/A,,Overcast,210,2013-12-10 13:35:00
8:55 AM,-5.8,-9.6,84,29.83,10.0,SW,6.9,-,N/A,,Overcast,220,2013-12-10 13:55:00
9:16 AM,-4.2,-8.7,81,29.83,10.0,SW,8.1,-,N/A,,Overcast,230,2013-12-10 14:16:00
9:35 AM,-3.1,-8.3,78,29.83,10.0,WSW,8.1,-,N/A,,Overcast,240,2013-12-10 14:35:00
9:55 AM,-1.1,-7.6,74,29.82,10.0,West,8.1,-,N/A,,Overcast,260,2013-12-10 14:55:00
10:16 AM,1.0,-6.7,70,29.82,10.0,WSW,8.1,-,N/A,,Overcast,250,2013-12-10 15:16:00
10:35 AM,2.5,-6.3,67,29.81,10.0,WSW,8.1,-,N/A,,Overcast,250,2013-12-10 15:35:00
10:55 AM,3.0,-2.6,78,29.80,1.8,WSW,6.9,-,N/A,Snow,Light Snow,250,2013-12-10 15:55:00
11:15 AM,3.7,-0.9,81,29.79,2.0,West,3.5,-,N/A,Snow,Light Snow,260,2013-12-10 16:15:00
11:35 AM,4.8,-0.0,80,29.77,2.5,West,5.8,-,N/A,,Haze,280,2013-12-10 16:35:00
11:55 AM,4.8,0.5,82,29.75,2.0,NW,4.6,-,N/A,,Haze,310,2013-12-10 16:55:00
12:15 PM,5.9,1.4,82,29.74,10.0,West,6.9,-,N/A,,Overcast,280,2013-12-10 17:15:00
12:35 PM,6.8,1.9,80,29.73,10.0,WNW,6.9,-,N/A,,Overcast,290,2013-12-10 17:35:00
12:56 PM,7.5,2.3,79,29.72,5.0,West,5.8,-,N/A,,Haze,280,2013-12-10 17:56:00
1:15 PM,7.5,2.7,81,29.73,2.5,WSW,5.8,-,N/A,,Haze,240,2013-12-10 18:15:00
1:35 PM,7.7,3.2,82,29.73,1.8,WSW,3.5,-,N/A,Snow,Light Snow,250,2013-12-10 18:35:00
1:56 PM,8.8,4.5,83,29.72,1.2,Calm,Calm,-,N/A,Snow,Light Snow,0,2013-12-10 18:56:00
2:15 PM,8.4,4.6,85,29.73,1.8,Calm,Calm,-,N/A,Snow,Light Snow,0,2013-12-10 19:15:00
2:35 PM,9.3,5.0,83,29.73,2.5,SW,4.6,-,N/A,Snow,Light Snow,230,2013-12-10 19:35:00
2:56 PM,9.5,5.0,82,29.74,7.0,WSW,5.8,-,N/A,Snow,Light Snow,250,2013-12-10 19:56:00
3:15 PM,9.5,4.6,81,29.75,5.0,West,9.2,-,N/A,,Haze,260,2013-12-10 20:15:00
3:35 PM,9.1,4.3,81,29.75,3.0,SW,6.9,-,N/A,,Haze,220,2013-12-10 20:35:00
3:55 PM,8.6,3.9,81,29.76,5.0,SW,8.1,-,N/A,,Haze,220,2013-12-10 20:55:00
4:15 PM,8.6,3.4,79,29.77,10.0,SW,5.8,-,N/A,,Scattered Clouds,230,2013-12-10 21:15:00
4:36 PM,7.3,2.5,81,29.79,10.0,SSW,9.2,-,N/A,,Clear,210,2013-12-10 21:36:00
4:54 PM,7.2,2.5,81,29.79,10.0,SW,9.2,-,N/A,,Clear,220,2013-12-10 21:54:00
5:16 PM,6.3,2.1,83,29.79,10.0,SW,10.4,-,N/A,,Clear,220,2013-12-10 22:16:00
5:35 PM,6.4,2.3,83,29.80,10.0,SW,10.4,-,N/A,,Clear,230,2013-12-10 22:35:00
5:55 PM,6.3,1.6,81,29.81,10.0,SW,11.5,-,N/A,,Clear,230,2013-12-10 22:55:00
6:16 PM,9.1,2.3,74,29.81,10.0,WSW,15.0,-,N/A,,Mostly Cloudy,240,2013-12-10 23:16:00
6:35 PM,9.1,2.1,73,29.82,10.0,SW,16.1,21.9,N/A,,Overcast,230,2013-12-10 23:35:00
6:55 PM,9.3,1.9,72,29.83,10.0,WSW,15.0,-,N/A,,Overcast,240,2013-12-10 23:55:00
7:15 PM,9.1,1.8,72,29.84,10.0,SW,17.3,23.0,N/A,,Mostly Cloudy,230,2013-12-11 00:15:00
7:35 PM,8.6,1.4,73,29.85,10.0,WSW,13.8,24.2,N/A,,Mostly Cloudy,240,2013-12-11 00:35:00
7:55 PM,8.6,1.8,74,29.86,10.0,WSW,16.1,24.2,N/A,,Overcast,240,2013-12-11 00:55:00
8:15 PM,8.6,1.6,73,29.86,10.0,WSW,17.3,25.3,N/A,,Mostly Cloudy,240,2013-12-11 01:15:00
8:35 PM,8.2,1.2,73,29.87,10.0,WSW,17.3,27.6,N/A,,Scattered Clouds,250,2013-12-11 01:35:00
8:55 PM,8.1,0.9,72,29.87,10.0,WSW,16.1,25.3,N/A,,Clear,250,2013-12-11 01:55:00
9:15 PM,7.5,0.5,73,29.87,10.0,WSW,17.3,24.2,N/A,,Clear,250,2013-12-11 02:15:00
9:35 PM,6.8,-0.0,74,29.88,10.0,WSW,18.4,-,N/A,,Clear,250,2013-12-11 02:35:00
9:56 PM,6.6,-0.4,73,29.89,10.0,WSW,17.3,25.3,N/A,,Clear,250,2013-12-11 02:56:00
10:15 PM,5.9,-0.4,75,29.89,10.0,WSW,15.0,23.0,N/A,,Clear,240,2013-12-11 03:15:00
10:35 PM,5.9,-0.8,74,29.91,10.0,WSW,15.0,23.0,N/A,,Clear,240,2013-12-11 03:35:00
10:55 PM,5.5,-1.1,74,29.91,10.0,WSW,17.3,23.0,N/A,,Clear,240,2013-12-11 03:55:00
11:15 PM,5.2,-1.3,75,29.93,10.0,WSW,16.1,23.0,N/A,,Clear,240,2013-12-11 04:15:00
11:36 PM,5.0,-1.5,75,29.94,10.0,WSW,18.4,21.9,N/A,,Clear,240,2013-12-11 04:36:00
11:55 PM,4.8,-1.7,75,29.94,10.0,WSW,17.3,24.2,N/A,,Clear,250,2013-12-11 04:55:00